Weather History for Pinedale, WY

Change the Weather History Date:

Wednesday, November 6, 2013

  Actual Average (KBPI) Record (KBPI)
Temperature  
Mean Temperature 27 °F 29 °F  
Max Temperature 37 °F 44 °F 64 °F (1999)
Min Temperature 17 °F 14 °F -10 °F (2003)
Degree Days  
Heating Degree Days 38 36  
Month to date heating degree days 208  
Since 1 July heating degree days 1788  
Cooling Degree Days 0 0  
Month to date cooling degree days 0  
Year to date cooling degree days 35  
Moisture  
Dew Point 20 °F    
Average Humidity 77    
Maximum Humidity 100    
Minimum Humidity 52    
Precipitation  
Precipitation 0.00 in 0.01 in 0.22 in (1990)
Month to date precipitation 0.05  
Year to date precipitation 6.02  
Sea Level Pressure  
Sea Level Pressure 30.29 in    
Wind  
Wind Speed 6 mph (WNW)    
Max Wind Speed 28 mph    
Max Gust Speed 34 mph    
Visibility 10 miles    
Events Snow    
T = Trace of Precipitation, MM = Missing Value Source: NWS Daily Summary

Daily Weather History Graph

Daily Weather History Graph

Search for Another Location

Airport:

Trip Planner

Search our weather history database for the weather conditions in past years. The results will help you decide how hot, cold, wet, or windy it might be!

Date:

Astronomy

Nov. 06, 2013 Rise Set
Actual Time 7:00 AM MST 5:05 PM MST
Civil Twilight 6:30 AM MST 5:34 PM MST
Nautical Twilight 5:56 AM MST 6:08 PM MST
Astronomical Twilight 5:23 AM MST 6:41 PM MST
Moon 10:20 AM MST (11/6) 8:11 PM MST (11/6)
Length of Visible Light 11h 04m
Length of Day
10h 05m
Waxing Crescent, 14% of the Moon is Illuminated
Nov 6
Waxing Crescent
Nov 9
First Quarter
Nov 17
Full
Nov 25
Last Quarter
Dec 2
New

Hourly Weather History & Observations

Time (MST) Temp. Windchill Dew Point Humidity Pressure Visibility Wind Dir Wind Speed Gust Speed Precip Events Conditions
12:15 AM 17.6 °F 10.7 °F 14.0 °F 86% 30.21 in 10.0 mi NNW 4.6 mph - N/A   Mostly Cloudy
12:35 AM 17.6 °F 10.7 °F 14.0 °F 86% 30.21 in 10.0 mi WNW 4.6 mph - N/A   Overcast
12:55 AM 19.4 °F 12.8 °F 14.0 °F 80% 30.20 in 10.0 mi NW 4.6 mph - N/A   Overcast
1:15 AM 19.4 °F 14.3 °F 14.0 °F 80% 30.20 in 10.0 mi WNW 3.5 mph - N/A   Overcast
1:35 AM 19.4 °F 12.8 °F 14.0 °F 80% 30.20 in 10.0 mi West 4.6 mph - N/A   Mostly Cloudy
1:55 AM 17.6 °F - 14.0 °F 86% 30.21 in 10.0 mi Calm Calm - N/A   Scattered Clouds
2:15 AM 19.4 °F 11.5 °F 14.0 °F 80% 30.22 in 10.0 mi West 5.8 mph - N/A   Mostly Cloudy
2:35 AM 19.4 °F - 14.0 °F 80% 30.22 in 10.0 mi Calm Calm - N/A   Overcast
2:55 AM 19.4 °F 11.5 °F 14.0 °F 80% 30.22 in 10.0 mi West 5.8 mph - N/A   Overcast
3:15 AM 19.4 °F 11.5 °F 15.8 °F 86% 30.22 in 10.0 mi West 5.8 mph - N/A   Overcast
3:35 AM 21.2 °F 16.4 °F 17.6 °F 86% 30.22 in 7.0 mi WNW 3.5 mph - N/A Snow Light Snow
3:55 AM 21.2 °F - 17.6 °F 86% 30.22 in 5.0 mi Calm Calm - N/A Snow Light Snow
4:15 AM 21.2 °F - 19.4 °F 93% 30.22 in 7.0 mi Calm Calm - N/A   Overcast
4:35 AM 21.2 °F - 19.4 °F 93% 30.22 in 10.0 mi Calm Calm - N/A   Overcast
4:55 AM 21.2 °F 16.4 °F 19.4 °F 93% 30.23 in 10.0 mi NE 3.5 mph - N/A   Overcast
5:15 AM 19.4 °F - 19.4 °F 100% 30.23 in 10.0 mi Calm Calm - N/A   Overcast
5:35 AM 21.2 °F - 19.4 °F 93% 30.23 in 7.0 mi Calm Calm - N/A   Overcast
5:55 AM 19.4 °F - 19.4 °F 100% 30.23 in 10.0 mi Calm Calm - N/A   Overcast
6:15 AM 19.4 °F 14.3 °F 17.6 °F 93% 30.23 in 10.0 mi West 3.5 mph - N/A   Mostly Cloudy
6:35 AM 17.6 °F - 17.6 °F 100% 30.23 in 10.0 mi Calm Calm - N/A   Scattered Clouds
6:55 AM 17.6 °F 10.7 °F 17.6 °F 100% 30.24 in 10.0 mi West 4.6 mph - N/A   Scattered Clouds
7:15 AM 17.6 °F - 17.6 °F 100% 30.24 in 10.0 mi Calm Calm - N/A   Mostly Cloudy
7:35 AM 19.4 °F 14.3 °F 19.4 °F 100% 30.25 in 10.0 mi WNW 3.5 mph - N/A   Mostly Cloudy
7:55 AM 19.4 °F - 19.4 °F 100% 30.26 in 10.0 mi Calm Calm - N/A   Scattered Clouds
8:15 AM 21.2 °F - 19.4 °F 93% 30.27 in 7.0 mi Calm Calm - N/A   Mostly Cloudy
8:35 AM 24.8 °F - 21.2 °F 86% 30.27 in 10.0 mi Calm Calm - N/A   Scattered Clouds
8:55 AM 26.6 °F 22.6 °F 23.0 °F 86% 30.28 in 10.0 mi NW 3.5 mph - N/A   Clear
9:15 AM 28.4 °F 24.6 °F 21.2 °F 74% 30.28 in 10.0 mi NW 3.5 mph - N/A   Clear
9:35 AM 30.2 °F 24.3 °F 21.2 °F 69% 30.28 in 10.0 mi WNW 5.8 mph - N/A   Clear
9:55 AM 30.2 °F 22.6 °F 21.2 °F 69% 30.29 in 10.0 mi NW 8.1 mph - N/A   Clear
10:15 AM 32.0 °F 23.6 °F 21.2 °F 64% 30.29 in 10.0 mi WNW 10.4 mph 16.1 mph N/A   Clear
10:35 AM 32.0 °F 22.1 °F 23.0 °F 69% 30.29 in 10.0 mi NW 13.8 mph - N/A   Clear
10:55 AM 33.8 °F 24.8 °F 21.2 °F 60% 30.29 in 10.0 mi WNW 12.7 mph 24.2 mph N/A   Clear
11:15 AM 33.8 °F 23.2 °F 21.2 °F 60% 30.29 in 10.0 mi WNW 17.3 mph 26.5 mph N/A   Scattered Clouds
11:35 AM 35.6 °F 25.9 °F 21.2 °F 56% 30.29 in 10.0 mi WNW 16.1 mph 26.5 mph N/A   Scattered Clouds
11:55 AM 35.6 °F 24.2 °F 21.2 °F 56% 30.29 in 10.0 mi NW 21.9 mph 29.9 mph N/A   Scattered Clouds
12:15 PM 35.6 °F 24.2 °F 21.2 °F 56% 30.28 in 10.0 mi NW 21.9 mph 28.8 mph N/A   Mostly Cloudy
12:35 PM 35.6 °F 24.0 °F 21.2 °F 56% 30.27 in 10.0 mi WNW 23.0 mph 33.4 mph N/A   Scattered Clouds
12:55 PM 35.6 °F 23.2 °F 21.2 °F 56% 30.28 in 10.0 mi NW 26.5 mph 33.4 mph N/A   Mostly Cloudy
1:15 PM 37.4 °F 25.4 °F 21.2 °F 52% 30.28 in 10.0 mi NW 27.6 mph 34.5 mph N/A   Mostly Cloudy
1:35 PM 37.4 °F 26.4 °F 21.2 °F 52% 30.28 in 10.0 mi NW 23.0 mph 32.2 mph N/A   Mostly Cloudy
1:55 PM 37.4 °F 25.6 °F 21.2 °F 52% 30.29 in 10.0 mi NW 26.5 mph 31.1 mph N/A   Mostly Cloudy
2:15 PM 35.6 °F 24.2 °F 21.2 °F 56% 30.29 in 10.0 mi NW 21.9 mph 33.4 mph N/A   Mostly Cloudy
2:35 PM 35.6 °F 23.4 °F 21.2 °F 56% 30.29 in 10.0 mi WNW 25.3 mph 32.2 mph N/A   Mostly Cloudy
2:55 PM 35.6 °F 23.7 °F 21.2 °F 56% 30.29 in 10.0 mi WNW 24.2 mph 33.4 mph N/A   Mostly Cloudy
3:15 PM 35.6 °F 24.5 °F 21.2 °F 56% 30.30 in 10.0 mi WNW 20.7 mph 26.5 mph N/A   Mostly Cloudy
3:35 PM 35.6 °F 25.2 °F 21.2 °F 56% 30.31 in 10.0 mi WNW 18.4 mph 26.5 mph N/A   Overcast
3:55 PM 35.6 °F 24.8 °F 21.2 °F 56% 30.32 in 10.0 mi WNW 19.6 mph 26.5 mph N/A   Overcast
4:15 PM 33.8 °F 22.8 °F 21.2 °F 60% 30.32 in 10.0 mi NW 18.4 mph 25.3 mph N/A   Mostly Cloudy
4:35 PM 32.0 °F 21.6 °F 21.2 °F 64% 30.33 in 10.0 mi WNW 15.0 mph 21.9 mph N/A   Scattered Clouds
4:55 PM 32.0 °F 21.6 °F 23.0 °F 69% 30.34 in 10.0 mi WNW 15.0 mph - N/A   Scattered Clouds
5:15 PM 30.2 °F 20.8 °F 23.0 °F 75% 30.34 in 10.0 mi NW 11.5 mph - N/A   Scattered Clouds
5:35 PM 30.2 °F 22.6 °F 21.2 °F 69% 30.34 in 10.0 mi NW 8.1 mph - N/A   Clear
5:55 PM 28.4 °F - 21.2 °F 74% 30.35 in 10.0 mi Calm Calm - N/A   Mostly Cloudy
6:15 PM 28.4 °F - 23.0 °F 80% 30.35 in 10.0 mi Calm Calm - N/A   Overcast
6:35 PM 28.4 °F - 21.2 °F 74% 30.35 in 10.0 mi Calm Calm - N/A   Mostly Cloudy
6:55 PM 28.4 °F - 23.0 °F 80% 30.36 in 10.0 mi Calm Calm - N/A   Overcast
7:15 PM 30.2 °F - 23.0 °F 75% 30.37 in 10.0 mi Calm Calm - N/A   Overcast
7:35 PM 30.2 °F - 23.0 °F 75% 30.37 in 10.0 mi Calm Calm - N/A   Overcast
7:55 PM 30.2 °F 26.7 °F 23.0 °F 75% 30.37 in 10.0 mi WSW 3.5 mph - N/A   Overcast
8:15 PM 30.2 °F 26.7 °F 23.0 °F 75% 30.37 in 10.0 mi WNW 3.5 mph - N/A   Overcast
8:35 PM 30.2 °F 26.7 °F 23.0 °F 75% 30.38 in 10.0 mi West 3.5 mph - N/A   Overcast
8:55 PM 30.2 °F 26.7 °F 24.8 °F 80% 30.38 in 10.0 mi WNW 3.5 mph - N/A   Overcast
9:15 PM 30.2 °F 26.7 °F 24.8 °F 80% 30.39 in 10.0 mi West 3.5 mph - N/A   Overcast
9:35 PM 30.2 °F 26.7 °F 24.8 °F 80% 30.39 in 10.0 mi West 3.5 mph - N/A   Overcast
9:55 PM 30.2 °F 25.4 °F 24.8 °F 80% 30.39 in 10.0 mi West 4.6 mph - N/A   Overcast
10:15 PM 30.2 °F 26.7 °F 24.8 °F 80% 30.39 in 10.0 mi WSW 3.5 mph - N/A   Overcast
10:35 PM 30.2 °F - 24.8 °F 80% 30.38 in 10.0 mi Calm Calm - N/A   Mostly Cloudy
10:55 PM 28.4 °F 24.6 °F 24.8 °F 86% 30.39 in 10.0 mi WSW 3.5 mph - N/A   Clear
11:15 PM 26.6 °F 22.6 °F 24.8 °F 93% 30.40 in 10.0 mi West 3.5 mph - N/A   Mostly Cloudy
11:35 PM 26.6 °F 22.6 °F 23.0 °F 86% 30.40 in 10.0 mi WNW 3.5 mph - N/A   Overcast
11:55 PM 28.4 °F - 26.6 °F 93% 30.40 in 10.0 mi Calm Calm - N/A   Overcast